Regional Weather Roundup
Issued by NWS

Home | Current Version | Previous Version | Text Only | Print | Product List | Glossary On
Versions: 1 2 3 4 5 6 7 8 9 10 11 12 13 14 15 16 17 18 19 20 21 22 23 24 25 26 27 28 29 30 31 32 33 34 35 36 37 38 39 40 41 42 43 44 45 46 47 48 49 50
000
ASUS43 KOAX 170010
RWRNE

WEATHER ROUNDUP FOR NEBRASKA
NATIONAL WEATHER SERVICE OMAHA NE
700 PM CDT TUE SEP 16 2014

NOTES: SATELLITE DATA IS BEING USED TO AUGMENT CLOUD COVER ABOVE
       12000 FEET.
       "FAIR" INDICATES FEW OR NO CLOUDS BELOW 12,000 FEET WITH NO
       SIGNIFICANT WEATHER AND/OR OBSTRUCTIONS TO VISIBILITY.

  * THESE STATIONS DO NOT REPORT WEATHER SUCH AS RAIN...SNOW OR FOG.

NEZ001>004-019>022-054>056-170100-
NEBRASKA PANHANDLE

CITY           SKY/WX    TMP DP  RH WIND       PRES   REMARKS
SCOTTSBLUFF    SUNNY     84  39  20 S7        29.98F
6HR MIN TEMP:  74; 6HR MAX TEMP:  89;

ALLIANCE       SUNNY     79  44  28 NE7       29.98F
6HR MIN TEMP:  75; 6HR MAX TEMP:  86;

CHADRON        SUNNY     80  50  34 SE7       29.93F
6HR MIN TEMP:  75; 6HR MAX TEMP:  86;

SIDNEY         SUNNY     83  39  21 NE9       30.04F
6HR MIN TEMP:  80; 6HR MAX TEMP:  87;

$$

NEZ057>060-069>072-079>082-170100-
SOUTHWEST NEBRASKA

CITY           SKY/WX    TMP DP  RH WIND       PRES   REMARKS
NORTH PLATTE   PTCLDY    73  60  63 SE6       29.96F
6HR MIN TEMP:  69; 6HR MAX TEMP:  77;

IMPERIAL       CLEAR     83  51  33 N7        29.98R
6HR MIN TEMP:  74; 6HR MAX TEMP:  88;

LEXINGTON      PTCLDY    69  60  71 SE8       29.98F
MCCOOK         CLEAR     76  59  55 E13       29.95F
6HR MIN TEMP:  69; 6HR MAX TEMP:  80;

OGALLALA       CLEAR     81  54  39 CALM      29.98S
$$

NEZ005>010-023>029-035>040-094-170100-
NORTH CENTRAL NEBRASKA

CITY           SKY/WX    TMP DP  RH WIND       PRES   REMARKS
VALENTINE      CLEAR     78  54  43 N3        29.94S
6HR MIN TEMP:  72; 6HR MAX TEMP:  82;

BROKEN BOW     CLEAR     68  58  70 SE10      29.98F
6HR MIN TEMP:  65; 6HR MAX TEMP:  72;

O`NEILL        PTCLDY    67  58  72 S8        29.96F
ORD            PTCLDY    66  55  67 S12       29.98F
6HR MIN TEMP:  65; 6HR MAX TEMP:  69;

THEDFORD       CLEAR     79  60  52 S7        29.96S
$$

NEZ041-046>049-061>064-073>077-083>087-170100-
SOUTH CENTRAL NEBRASKA

CITY           SKY/WX    TMP DP  RH WIND       PRES   REMARKS
GRAND ISLAND   CLOUDY    66  54  65 S8        30.02S
6HR MIN TEMP:  65; 6HR MAX TEMP:  71;

HASTINGS       CLOUDY    65  52  62 S7        30.01F
6HR MIN TEMP:  65; 6HR MAX TEMP:  69;

HEBRON         CLOUDY    66  51  57 CALM      30.02S
HOLDREGE       PTCLDY    66  57  71 SE7       29.99F
KEARNEY *      MOCLDY    64  55  72 SE7       30.01F
YORK           CLOUDY    64  55  72 SW5       30.02S
$$

NEZ011>018-030>034-042>045-170100-
NORTHEAST NEBRASKA

CITY           SKY/WX    TMP DP  RH WIND       PRES   REMARKS
NORFOLK        CLOUDY    66  51  58 S7        29.99F
6HR MIN TEMP:  65; 6HR MAX TEMP:  71;

ALBION         CLOUDY    66  54  65 S9        30.00S
COLUMBUS *     CLOUDY    66  48  52 SE7       30.02S
TEKAMAH        PTCLDY    66  51  58 SE6       30.02F
6HR MIN TEMP:  65; 6HR MAX TEMP:  70;

WAYNE          PTCLDY    64  52  66 SE6       30.01S
$$

NEZ050>053-065>068-078-088>093-170100-
SOUTHEAST NEBRASKA

CITY           SKY/WX    TMP DP  RH WIND       PRES   REMARKS
LINCOLN        CLOUDY    69  49  48 SE6       30.02S
6HR MIN TEMP:  65; 6HR MAX TEMP:  72;

OMAHA EPPLEY   PTCLDY    66  48  52 S9        30.03F
6HR MIN TEMP:  63; 6HR MAX TEMP:  69;

BEATRICE       CLOUDY    68  48  49 S5        30.01F
FALLS CITY     PTCLDY    66  52  60 SE5       30.02F
6HR MIN TEMP:  66; 6HR MAX TEMP:  72;

NEBRASKA CITY  PTCLDY    65  44  47 SE5       30.02F
PLATTSMOUTH    MOCLDY    64  49  56 SE3       30.03F
$$

NEZ044-045-051>053-067-170100-
OMAHA AREA

CITY           SKY/WX    TMP DP  RH WIND       PRES   REMARKS
OMAHA EPPLEY   PTCLDY    66  48  52 S9        30.03F
6HR MIN TEMP:  63; 6HR MAX TEMP:  69;

MILLARD        CLOUDY    66  52  59 SE7       30.02F
OFFUTT AFB     MOCLDY    63  57  81 E6        30.02F
PLATTSMOUTH    MOCLDY    64  49  56 SE3       30.03F
WAHOO          CLOUDY    65  51  60 SE3       30.02S
$$



USA.gov is the U.S. government's official web portal to all federal, state and local government web resources and services.